Delray Beach, FL (33444)

11:06 AM EDT on September 17, 2014 (GMT -0400)
Lake Ida | Change Station
CLOSE
Current Station
Personal Weather Station
Location: Delray Beach, FL
Elevation: 10 ft
Nearby Weather Stations
Active Advisory: Coastal Hazard Statement

Elev 10 ft 26.47 °N, 80.08 °W | Updated 5 seconds ago

Mostly Cloudy
Mostly Cloudy
86.4 °F
Feels Like 96 °F
N
1.0
Wind Variable Wind from NNW
Gusts 3.0 mph

Today
High -- | Low -- °F
--% Chance of Precip.
Yesterday
High -- | Low -- °F
Precip. -- in
7:06 AM 7:22 PM
Waning Crescent, 35% visible
Pressure 29.99 in
Visibility 10.0 miles
Clouds Few 7500 ft
Mostly Cloudy 25000 ft
Heat Index 96 °F
Dew Point 75 °F
Humidity 70%
Rainfall 0.00 in
Snow Depth Not available.
UV 5 out of 12
Pollen 3.30 out of 12
Air Quality Not available.
Flu Activity Not available.
METAR KPMP 171453Z VRB05KT 10SM FEW075 BKN250 30/21 A2998 RMK AO2 SLP154 T03000211 51006

More Conditions Fewer Conditions

Pressure 29.99 in
Visibility 10.0 miles
Clouds Few 7500 ft
Mostly Cloudy 25000 ft
Heat Index 96 °F
Dew Point 75 °F
Humidity 70%
Rainfall 0.00 in
Snow Depth Not available.
UV 5 out of 12
Pollen 3.30 out of 12
Air Quality Not available.
Flu Activity Not available.
METAR KPMP 171453Z VRB05KT 10SM FEW075 BKN250 30/21 A2998 RMK AO2 SLP154 T03000211 51006

More Conditions Fewer Conditions

10-Day Weather Forecast

Almanac

Astronomy

Sep. 17, 2014 Rise Set
Actual Time 7:06 AM EDT 7:22 PM EDT
Civil Twilight 6:43 AM EDT 7:45 PM EDT
Nautical Twilight 6:16 AM EDT 8:12 PM EDT
Astronomical Twilight 5:49 AM EDT 8:39 PM EDT
Moon 1:29 AM EDT 3:08 PM EDT
Length of Visible Light 13h 01m
Length of Day
12h 15m
Tomorrow will be 1m 31s shorter.
Waning Crescent, 35% of the Moon is Illuminated
Today
Waning Crescent
Sep 24
New
Oct 1
First Quarter
Oct 8
Full
Oct 15
Last Quarter

Today's Extremes

State Highs State Lows

Community

WunderPhotos

Upload Photos

1,754,064 photos uploaded!

WunderBlogs® & News

Nearby

Air Quality

  Air Quality AQ Index Pollutant
Yesterday Good
PM2.5
Yesterday Good
OZONE
Wednesday Good
OZONE
Wednesday Good
PM2.5
Thursday Good
OZONE
Thursday Good
PM2.5

Snow Depth

Station Depth Elevation
No new snow has been reported.

Earthquake Activity

City Distance Mag. Time & Date
No recent earthquake activity has been reported nearby.
Minimum magnitude displayed is 2.5.

Coastal Water Temperatures

Place Temperature
Lake Worth, FL 84.9 °F
Virginia Key, FL 84.9 °F

Nearby Weather Stations